User: anonymous   Login
Location: Arthez
(43.0833°N, 0.2500°W)
Time: 02:01:51
(UTC+00:00)
Language:

Cosmos 304 Rocket - Orbit

View from above orbital plane
View from above orbital plane
View from above satellite
View from above satellite

Ground track
Ground track

The orbit data is extracted from the following two-line orbital elements,

1 04139U 69091B   22019.55474742  .00000263  00000-0  57102-4 0  9994
2 04139  74.0328 128.3571 0005022 163.7518 196.3811 14.63112995774053
Epoch (UTC): 19 January 2022 13:18:50
Eccentricity: 0.0005022
inclination: 74.0328°
perigee height: 679 km
apogee height: 686 km
right ascension of ascending node: 128.3571°
argument of perigee: 163.7518°
revolutions per day: 14.63112995
mean anomaly at epoch: 196.3811°
orbit number at epoch: 77405

The dashed part of the orbit path shows where the satellite is in the earth's shadow,  

DLR